NIGERIAEDUSAT-1 (42824 NORAD) Tracking and Keplerian Element Data

This shows tracking and keplerian element data for the satellite.

Feedback or suggestion? Click here.




ElementValue
Catalog42824
NameNIGERIAEDUSAT-1
Epoch Orbit5860
Epoch Day198.48776727
Epoch Year2018
RAAN207.3756
Inclination51.6345
Eccentricity0.0004749
Argument of Perigee322.0621
Mean Anonmoly38.004
Mean Motion15.68556377
Decay Rate0.00023037
L11 42824U 98067MY 18198.48776727 .00023037 00000-0 20350-3 0 9993
L22 42824 51.6345 207.3756 0004749 322.0621 38.0040 15.68556377 58603

Live tracking and technical data element details for NIGERIAEDUSAT-1 (NORAD 42824). NIGERIAEDUSAT-1 can be tracked NOW for your location showing map with azimuth and elevation plus other details from your city location.

Track the satellite on the map from your city or location and see movement details for azimuth, elevation, latitude, longitude, range, height, and movement on the map or in text.







IsCatalogInMostPopularTable: catalog: 42824, numindb: 65
Update: records affected: 1



GetName: 42824 NIGERIAEDUSAT-1

Hit Count: updated at: Thu, 19 Jul 2018 21:11:04 GMT